Terug naar catalogus

FENGYUN 1C DEB

ActiefPO
NORAD 31919·DEBRIS·🇨🇳 China

Gelanceerd May 10, 1999 vanaf Taiyuan Satellite Launch Center

Loading…

Volgende Passages (komende 24 uur)

TLE

VersSource: Space-Track

Epoch: Sep 11, 2026, 05:18 UTC

1 31919U 99025CLW 26254.22119756  .00000715  00000-0  20056-3 0  9999
2 31919  99.1357  62.1265 0102293 117.5240  57.3142 14.46453279 10208

Volg FENGYUN 1C DEB in realtime met AllMySat

Download on the App Store